Orbital Elements at Epoch 2459200.5 (2020-Dec-17.0) TDB
Reference: JPL 25 (heliocentric ecliptic J2000)
Element | Value | Uncertainty (1-sigma) | Units |
e | .2011993470175609 | 3.7764e-08 | |
a | 2.425949914723294 | 9.5202e-09 | au |
q | 1.93785037598366 | 9.2502e-08 | au |
i | 2.488142190675969 | 4.0001e-06 | deg |
node | 34.41536502464523 | 0.00010012 | deg |
peri | 272.9658008470241 | 0.00010059 | deg |
M | 33.48917036663622 | 9.5392e-06 | deg |
tp | 2459072.112405933295 (2020-Aug-10.61240593) | 3.6494e-05 | TDB |
period | 1380.133737504002 3.78 | 8.1241e-06 2.224e-08 | d yr |
n | .2608442864755025 | 1.5355e-09 | deg/d |
Q | 2.914049453462928 | 1.1436e-08 | au |
|
| | Orbit Determination Parameters
Additional Information
|